This is the latest recevied weather packets stored in our database for station/object DL7AND-1. If no packets are shown the sender has not sent any weather packets the latest 10 day(s).
| Time | Temp. | Humidity | Pressure | Rain* | Wind** | Luminosity | Snow |
|---|---|---|---|---|---|---|---|
| 1778235744 | 13.33° C | - | 1010.5 hPa | 0 mm | - | - | - |
| 1778233584 | 12.22° C | - | 1010.5 hPa | 0 mm | - | - | - |
| 1778230608 | 12.22° C | - | 1010.5 hPa | 0 mm | - | - | - |
| 1778228228 | 12.22° C | - | 1010.4 hPa | 0 mm | - | - | - |
| 1778227632 | 12.22° C | - | 1010.3 hPa | 0 mm | - | - | - |
| 1778225808 | 12.78° C | - | 1010.1 hPa | 0 mm | - | - | - |
| 1778224896 | 11.67° C | - | 1010.1 hPa | 0 mm | - | - | - |
| 1778223408 | 12.22° C | - | 1009.9 hPa | 0 mm | - | - | - |
| 1778222784 | 11.67° C | - | 1010 hPa | 0 mm | - | - | - |
| 1778216208 | 8.89° C | - | 1009.3 hPa | 0 mm | - | - | - |
| 1778212648 | 8.89° C | - | 1009 hPa | 0 mm | - | - | - |
| 1778208096 | 8.89° C | - | 1008.8 hPa | 0 mm | - | - | - |
| 1778206944 | 8.89° C | - | 1008.9 hPa | 0 mm | - | - | - |
| 1778204516 | 8.89° C | - | 1008.7 hPa | 0 mm | - | - | - |
| 1778201520 | 9.44° C | - | 1008.5 hPa | 0 mm | - | - | - |
| 1778199744 | 9.44° C | - | 1008.7 hPa | 0 mm | - | - | - |
| 1778188896 | 11.11° C | - | 1008.3 hPa | 0 mm | - | - | - |
| 1778185920 | 11.11° C | - | 1008.1 hPa | 0 mm | - | - | - |
| 1778177804 | 11.67° C | - | 1006.7 hPa | 0 mm | - | - | - |
| 1778175405 | 11.67° C | - | 1006.6 hPa | 0 mm | - | - | - |
| 1778172718 | 11.67° C | - | 1006 hPa | 0 mm | - | - | - |
| 1778167005 | 11.67° C | - | 1005.7 hPa | 0 mm | - | - | - |
| 1778166428 | 11.67° C | - | 1005.6 hPa | 0 mm | - | - | - |
| 1778164653 | 11.67° C | - | 1005.4 hPa | 0 mm | - | - | - |
| 1778157118 | 10° C | - | 1004.9 hPa | 0 mm | - | - | - |
* Rain latest hour (hover to see other rain measurements)
** Current wind speed in m/s (hover to see current wind gust speed)